[[{"header":{"parameterUnit":"m.s-1","parameterCategory":1,"la1":30.2991,"la2":30.254,"lo1":-89.0895,"lo2":-89.0444,"dy":0.0017,"dx":0.0017,"nx":28,"ny":28,"refTime":"2023-11-14T09:00:00:Z","depth":0,"parameterNumber":2,"parameterNumberName":"U-component_of_WINDS"},"data":[0,0,0,0,0,0,0,0,0,0,0,0,0,0,0,0,0,0,0,0,0,0,0,0,0,0,0,0,0,0,0,0,0,0,0,0,0,0,0,0,0,0,0,0,0,0,0,0,0,0,0,0,0,0,0,0,0,0,-5.9175,-5.9179,0,-5.954,-5.9544,-5.9548,-5.9537,-5.9532,-5.9527,-5.9522,-5.9901,-5.9915,-5.993,0,0,0,0,0,0,0,0,0,0,0,0,0,-5.8473,-5.8486,-5.9175,-5.9179,-5.9184,-5.9539,-5.9544,-5.9549,-5.9538,-5.9532,-5.9525,-5.952,-5.9896,-5.9913,-5.9931,0,0,0,0,0,0,0,0,0,0,0,0,0,-5.8802,-5.849,-5.9174,-5.9221,-5.9229,-5.9538,-5.9544,-5.955,-5.9539,-5.9531,-5.9524,-5.9517,-5.989,-5.9911,-5.9933,-6.0222,0,0,-6.0001,-6.0011,0,0,0,0,0,0,0,0,-5.8783,-5.8828,-5.9209,-5.9218,-5.9227,-5.9485,-5.9436,-5.9776,-5.9541,-5.9421,-5.9522,-5.9513,-5.9769,-5.98,-5.9886,-6.0239,-6.0256,-6.0003,-6.0017,-6.0026,-6.0032,0,0,0,0,0,0,0,-5.8761,-5.8812,-5.9319,-5.9215,-5.9226,-5.9225,-5.9264,-5.95,-5.9633,-5.9431,-5.9431,-5.9474,-5.9772,-5.9864,-5.9894,-6.0261,-6.0002,-6.0022,-6.0036,-6.0044,-6.0874,-6.0882,0,0,0,0,0,0,-5.8727,-5.8793,-5.9308,-5.933,-5.8982,-5.9244,-5.9287,-5.941,-5.9631,-5.9657,-5.948,-5.9472,-5.983,-5.9869,-5.9908,-6.0263,-6.0026,-6.0047,-6.0059,-6.0865,-6.0876,-6.0885,0,0,0,0,0,0,-5.8712,-5.8773,-5.9293,-5.9062,-5.9128,-5.9264,-5.9402,-5.9421,-5.9513,-5.9668,-5.9692,-5.955,-5.9826,-5.9876,-6.0144,-6.0276,-6.0057,-6.0077,-6.0855,-6.0868,-6.088,-6.0973,0,0,0,0,0,0,-5.8692,-5.8768,-5.8877,-5.9064,-5.914,-5.9522,-5.941,-5.9434,-5.9551,-5.9544,-5.9739,-5.9764,-5.9824,-6.0111,-6.0166,-6.0302,-6.0094,-6.0844,-6.0861,-6.0876,-6.0959,-6.0988,-6.1013,0,0,0,0,0,-5.8667,-5.8889,-5.8883,-5.8945,-5.928,-5.9529,-5.9573,-5.9636,-5.9561,-5.9674,-5.9774,-5.9758,-6.0252,-6.0139,-6.0201,-6.0345,-6.0836,-6.0856,-6.0875,-6.0947,-6.0982,-6.1012,0,0,0,0,0,0,-5.8716,-5.8915,-5.891,-5.9199,-5.9347,-5.9527,-5.9671,-5.967,-5.9844,-5.983,-5.9902,-5.9946,-6.0215,-6.0306,-6.0177,-6.0638,-6.0535,-6.0568,-6.0568,-6.0603,-6.0629,-6.0603,-6.0113,0,0,0,0,0,-5.8759,-5.8944,-5.9108,-5.9348,-5.9422,-5.9534,-5.9645,-5.968,-5.9837,-5.99,-6.0019,-6.0174,-6.0364,-6.0488,-6.0671,-6.0971,-6.1016,-6.1102,-6.1128,-6.1149,-6.1178,-6.1348,-6.1389,-6.095,-6.0949,-6.0949,0,0,-5.8853,-5.8984,-5.9097,-5.9361,-5.948,-5.9672,-5.9587,-5.9792,-5.9936,-5.9932,-6.0193,-6.0285,-6.0463,-6.0749,-6.0881,-6.0834,-6.1309,-6.1175,-6.119,-6.1208,-6.1372,-6.1414,-6.145,-6.0963,-6.0961,-6.0958,0,0,-5.9122,-5.9238,-5.9452,-5.9573,-5.9754,-5.9827,-5.9878,-6.0059,-6.0121,-6.0383,-6.0385,-6.0557,-6.0882,-6.101,-6.1117,-6.1436,-6.143,-6.1493,-6.1634,-6.1798,-6.1833,-6.1864,-6.1982,-6.2023,-6.1521,-6.1521,-6.1521,0,-5.9216,-5.9503,-5.9562,-5.977,-5.9888,-5.9891,-6.011,-6.0225,-6.0457,-6.0539,-6.0482,-6.0893,-6.1012,-6.133,-6.1407,-6.1493,-6.1556,-6.1473,-6.1823,-6.1855,-6.1885,-6.1998,-6.2041,-6.1528,-6.1527,-6.1526,-6.1526,0,-5.9612,-5.9811,-5.9962,-6.0186,-6.032,-6.0532,-6.0625,-6.0755,-6.0778,-6.0858,-6.1127,-6.127,-6.1484,-6.1561,-6.1586,-6.1884,-6.1849,-6.1807,-6.1706,-6.1933,-6.204,-6.2083,-6.1538,-6.1535,-6.1533,-6.1532,0,0,-5.9923,-6.0177,-6.0232,-6.0335,-6.0535,-6.0691,-6.0904,-6.1112,-6.1224,-6.1383,-6.1567,-6.1842,-6.1805,-6.1927,-6.1966,-6.211,-6.2358,-6.2051,-6.2056,-6.2106,-6.2699,-6.2732,-6.2781,-6.2353,-6.2362,-6.2368,-6.2685,0,-6.0216,-6.0593,-6.0653,-6.0986,-6.1172,-6.1179,-6.1365,-6.151,-6.159,-6.1762,-6.185,-6.2046,-6.198,-6.2054,-6.2196,-6.2297,-6.2478,-6.2275,-6.2528,-6.2536,-6.2487,-6.2837,-6.2872,-6.3165,-6.2727,-6.2734,-6.274,0,-6.0608,-6.0778,-6.1129,-6.1306,-6.1387,-6.1553,-6.175,-6.1913,-6.2078,-6.2126,-6.2263,-6.2286,-6.251,-6.2396,-6.2709,-6.2569,-6.2676,-6.2741,-6.2754,-6.2783,-6.2654,-6.2879,-6.3259,-6.3304,-6.2806,-6.28,-6.2796,0,-6.0804,-6.1121,-6.1373,-6.146,-6.1672,-6.179,-6.1884,-6.2041,-6.2163,-6.2335,-6.2416,-6.2612,-6.2721,-6.2874,-6.2951,-6.286,-6.3259,-6.315,-6.3309,-6.3307,-6.3395,-6.339,-6.3802,-6.3458,-6.3457,-6.3456,-6.3456,0,-6.1127,-6.1342,-6.1464,-6.162,-6.1862,-6.193,-6.2168,-6.226,-6.24,-6.2575,-6.2592,-6.2756,-6.2845,-6.3024,-6.3085,-6.3337,-6.3385,-6.3433,-6.3447,-6.3434,-6.3428,-6.3507,-6.349,-6.3468,-6.3466,-6.3463,-6.3461,0,-6.1389,-6.1478,-6.1754,-6.1932,-6.1982,-6.2153,-6.2307,-6.246,-6.2538,-6.276,-6.2816,-6.2941,-6.3152,-6.3243,-6.3502,-6.3544,-6.3833,-6.383,-6.3777,-6.3783,-6.3938,-6.3923,-6.4418,-6.4488,-6.4094,-6.4098,-6.4101,0,-6.159,-6.1756,-6.1952,-6.207,-6.2168,-6.2357,-6.2482,-6.2555,-6.2685,-6.2886,-6.3015,-6.3226,-6.3399,-6.3737,-6.3852,-6.4052,-6.4057,-6.4217,-6.4087,-6.4069,-6.4064,-6.4055,-6.4074,-6.4241,-6.4245,-6.4248,-6.4251,0,-6.194,-6.1977,-6.2155,-6.235,-6.2498,-6.2656,-6.2809,-6.2905,-6.3003,-6.3148,-6.3364,-6.3498,-6.3763,-6.3974,-6.4181,-6.428,-6.4285,-6.429,-6.4338,-6.4328,-6.4292,-6.4318,-6.3846,-6.4279,-6.4277,-6.4275,-6.4273,-6.4272,-6.2181,-6.233,-6.2492,-6.2691,-6.2814,-6.2958,-6.3111,-6.3209,-6.3389,-6.361,-6.3642,-6.3874,-6.4037,-6.4315,-6.4423,-6.4607,-6.4567,-6.4635,-6.4654,-6.4671,-6.4682,-6.4259,-6.4644,-6.4643,-6.4643,-6.4642,-6.4642,0,-6.2535,-6.264,-6.2822,-6.3037,-6.3194,-6.318,-6.3351,-6.3484,-6.3687,-6.3838,-6.4008,-6.4257,-6.4462,-6.4593,-6.4801,-6.4923,-6.493,-6.4975,-6.4969,-6.4993,-6.4704,-6.4643,-6.4966,-6.4966,-6.4966,-6.4966,-6.4966,-6.4966,-6.2738,-6.2991,-6.3047,-6.3362,-6.3465,-6.3691,-6.379,-6.3924,-6.4045,-6.4322,-6.4492,-6.4575,-6.472,-6.4938,-6.5127,-6.516,-6.5238,-6.5286,-6.5318,-6.5046,-6.5013,-6.4981,-6.4924,-6.5301,-6.5302,-6.5593,-6.5596,-6.5598]},{"header":{"parameterUnit":"m.s-1","parameterCategory":1,"la1":30.2991,"la2":30.254,"lo1":-89.0895,"lo2":-89.0444,"dy":0.0017,"dx":0.0017,"nx":28,"ny":28,"refTime":"2023-11-14T09:00:00:Z","depth":0,"parameterNumber":3,"parameterNumberName":"V-component_of_WINDS"},"data":[0,0,0,0,0,0,0,0,0,0,0,0,0,0,0,0,0,0,0,0,0,0,0,0,0,0,0,0,0,0,0,0,0,0,0,0,0,0,0,0,0,0,0,0,0,0,0,0,0,0,0,0,0,0,0,0,0,0,-3.147,-3.147,0,-3.1515,-3.1516,-3.1516,-3.151,-3.1509,-3.1508,-3.1507,-3.1552,-3.1554,-3.1556,0,0,0,0,0,0,0,0,0,0,0,0,0,-3.1372,-3.1374,-3.1469,-3.147,-3.1471,-3.1515,-3.1516,-3.1517,-3.151,-3.1509,-3.1508,-3.1507,-3.1551,-3.1554,-3.1556,0,0,0,0,0,0,0,0,0,0,0,0,0,-3.1416,-3.1374,-3.1469,-3.1473,-3.1473,-3.1515,-3.1516,-3.1517,-3.151,-3.1509,-3.1508,-3.1507,-3.1551,-3.1553,-3.1556,-3.1597,0,0,-3.1565,-3.1566,0,0,0,0,0,0,0,0,-3.1413,-3.1419,-3.1472,-3.1473,-3.1473,-3.1506,-3.1498,-3.1544,-3.151,-3.1496,-3.1507,-3.1506,-3.1537,-3.1541,-3.1552,-3.1599,-3.1601,-3.1565,-3.1567,-3.1568,-3.1569,0,0,0,0,0,0,0,-3.141,-3.1417,-3.1488,-3.1472,-3.1473,-3.1471,-3.1476,-3.1507,-3.1522,-3.1497,-3.1497,-3.1502,-3.1538,-3.155,-3.1553,-3.1602,-3.1565,-3.1568,-3.1569,-3.157,-3.1682,-3.1683,0,0,0,0,0,0,-3.1407,-3.1415,-3.1486,-3.1489,-3.144,-3.1473,-3.1479,-3.1496,-3.1522,-3.1525,-3.1503,-3.1502,-3.1545,-3.155,-3.1555,-3.1603,-3.1568,-3.1571,-3.1572,-3.1681,-3.1682,-3.1684,0,0,0,0,0,0,-3.1405,-3.1413,-3.1484,-3.1452,-3.1461,-3.1476,-3.1496,-3.1498,-3.151,-3.1527,-3.1529,-3.1513,-3.1545,-3.1551,-3.1586,-3.1605,-3.1572,-3.1575,-3.1679,-3.1681,-3.1683,-3.1701,0,0,0,0,0,0,-3.1402,-3.1413,-3.1429,-3.1452,-3.1462,-3.1516,-3.1497,-3.15,-3.1515,-3.1514,-3.1537,-3.1539,-3.1544,-3.1582,-3.1589,-3.1608,-3.1577,-3.1678,-3.168,-3.1682,-3.1699,-3.1703,-3.1707,0,0,0,0,0,-3.1398,-3.1432,-3.143,-3.1439,-3.1484,-3.1517,-3.1523,-3.1529,-3.1517,-3.1533,-3.1543,-3.1538,-3.1601,-3.1586,-3.1594,-3.1614,-3.1677,-3.1679,-3.1682,-3.1697,-3.1702,-3.1707,0,0,0,0,0,0,-3.141,-3.1435,-3.1433,-3.1476,-3.1494,-3.1516,-3.1537,-3.1534,-3.1556,-3.1554,-3.1559,-3.1564,-3.16,-3.161,-3.1592,-3.1653,-3.1637,-3.1642,-3.1646,-3.1651,-3.1655,-3.1652,-3.1579,0,0,0,0,0,-3.1418,-3.1444,-3.1464,-3.15,-3.1509,-3.1521,-3.1536,-3.1539,-3.1558,-3.1566,-3.1579,-3.1597,-3.1621,-3.1636,-3.1659,-3.17,-3.1704,-3.1717,-3.1722,-3.1725,-3.1729,-3.1749,-3.1755,-3.1693,-3.1693,-3.1693,0,0,-3.1434,-3.1451,-3.1467,-3.1502,-3.1517,-3.1543,-3.1528,-3.1556,-3.1575,-3.157,-3.1604,-3.1614,-3.1635,-3.1673,-3.169,-3.1682,-3.1747,-3.1728,-3.1731,-3.1733,-3.1753,-3.1759,-3.1764,-3.1695,-3.1694,-3.1694,0,0,-3.1476,-3.1492,-3.1523,-3.1538,-3.1561,-3.1568,-3.1575,-3.1597,-3.1604,-3.1638,-3.1635,-3.1656,-3.1698,-3.1712,-3.1724,-3.177,-3.1766,-3.1777,-3.1799,-3.1819,-3.1824,-3.1828,-3.1844,-3.1849,-3.1781,-3.1781,-3.1781,0,-3.1493,-3.1533,-3.1539,-3.1567,-3.1582,-3.1579,-3.1609,-3.1623,-3.1652,-3.1661,-3.1652,-3.1703,-3.1717,-3.1757,-3.1768,-3.1779,-3.1786,-3.1775,-3.1823,-3.1827,-3.1832,-3.1846,-3.1852,-3.1782,-3.1782,-3.1782,-3.1782,0,-3.1552,-3.1579,-3.1601,-3.1629,-3.1646,-3.1676,-3.1685,-3.1701,-3.1702,-3.171,-3.1744,-3.176,-3.1785,-3.1795,-3.1796,-3.1835,-3.183,-3.1822,-3.1806,-3.1839,-3.1853,-3.1858,-3.1784,-3.1784,-3.1783,-3.1783,0,0,-3.1604,-3.1634,-3.1642,-3.1654,-3.1678,-3.1699,-3.1727,-3.1752,-3.1766,-3.1785,-3.1808,-3.1842,-3.1835,-3.1849,-3.1851,-3.1869,-3.1903,-3.1859,-3.1859,-3.1866,-3.1946,-3.1951,-3.1958,-3.19,-3.1901,-3.1902,-3.1944,0,-3.1648,-3.1699,-3.1704,-3.1749,-3.1773,-3.177,-3.1794,-3.181,-3.1818,-3.1839,-3.1847,-3.1871,-3.186,-3.1868,-3.1886,-3.1895,-3.1919,-3.1892,-3.192,-3.1921,-3.1915,-3.1965,-3.1972,-3.201,-3.1949,-3.195,-3.1951,0,-3.1707,-3.1728,-3.1776,-3.1795,-3.1805,-3.1827,-3.185,-3.187,-3.1888,-3.1892,-3.1908,-3.1907,-3.1934,-3.1917,-3.1954,-3.1936,-3.1947,-3.1953,-3.1955,-3.1958,-3.1938,-3.1969,-3.2023,-3.2029,-3.196,-3.1959,-3.1958,0,-3.1739,-3.178,-3.1813,-3.1823,-3.1847,-3.1862,-3.1872,-3.1889,-3.1904,-3.1923,-3.1932,-3.1954,-3.1966,-3.1983,-3.1988,-3.1975,-3.2024,-3.2007,-3.2028,-3.2027,-3.2038,-3.2037,-3.2095,-3.2046,-3.2046,-3.2046,-3.2046,0,-3.1788,-3.1817,-3.1828,-3.1848,-3.188,-3.1885,-3.1915,-3.1925,-3.1939,-3.196,-3.1958,-3.1978,-3.1983,-3.2003,-3.2007,-3.2037,-3.2042,-3.2045,-3.2046,-3.2046,-3.2045,-3.2053,-3.205,-3.2048,-3.2047,-3.2047,-3.2047,0,-3.183,-3.1839,-3.1874,-3.1893,-3.1899,-3.1921,-3.1936,-3.1955,-3.1962,-3.1989,-3.1995,-3.2006,-3.2029,-3.2036,-3.2064,-3.2066,-3.2101,-3.2099,-3.2095,-3.2095,-3.2114,-3.2112,-3.2178,-3.2187,-3.2133,-3.2134,-3.2134,0,-3.1861,-3.1883,-3.1904,-3.1918,-3.1929,-3.1952,-3.1966,-3.1971,-3.1986,-3.2007,-3.2023,-3.2046,-3.2065,-3.2103,-3.2112,-3.2133,-3.2132,-3.2153,-3.2135,-3.2133,-3.2131,-3.213,-3.2131,-3.2157,-3.2158,-3.2158,-3.2158,0,-3.1914,-3.1916,-3.1938,-3.196,-3.1978,-3.1996,-3.2013,-3.2024,-3.2031,-3.2047,-3.2072,-3.2086,-3.2114,-3.2137,-3.2158,-3.2167,-3.2164,-3.2164,-3.217,-3.2169,-3.2166,-3.2167,-3.2104,-3.2163,-3.2162,-3.2162,-3.2162,-3.2161,-3.1951,-3.1969,-3.1987,-3.201,-3.2023,-3.2039,-3.2057,-3.2066,-3.2087,-3.211,-3.2112,-3.2137,-3.2153,-3.2181,-3.2191,-3.221,-3.2204,-3.2212,-3.2214,-3.2216,-3.2217,-3.2163,-3.2214,-3.2214,-3.2214,-3.2214,-3.2214,0,-3.2003,-3.2013,-3.2035,-3.2059,-3.2077,-3.2072,-3.209,-3.2105,-3.2128,-3.2143,-3.2161,-3.2188,-3.221,-3.222,-3.2241,-3.2255,-3.2253,-3.226,-3.2259,-3.2261,-3.2223,-3.2215,-3.2261,-3.2261,-3.2261,-3.2261,-3.2261,-3.226,-3.2032,-3.2064,-3.2068,-3.2105,-3.2115,-3.2141,-3.2151,-3.2165,-3.2177,-3.2207,-3.2225,-3.2232,-3.2245,-3.2267,-3.2285,-3.2288,-3.2295,-3.2303,-3.2304,-3.2268,-3.2264,-3.2259,-3.2252,-3.2305,-3.2305,-3.2341,-3.2341,-3.2341]}]]